Weather History for KMLE - July, 2013

Change the Weather History Date:

Wednesday, July 24, 2013

  Actual Average (KOMA) Record (KOMA)
Temperature  
Mean Temperature 72 °F 77 °F  
Max Temperature 84 °F 87 °F 107 °F (1940)
Min Temperature 61 °F 66 °F 54 °F (1911)
Degree Days  
Heating Degree Days 0 0  
Month to date heating degree days 0  
Since 1 June heating degree days 17  
Since 1 July heating degree days 0  
Cooling Degree Days 7 12  
Month to date cooling degree days 284  
Year to date cooling degree days 596  
Since 1 June cooling degree days 514  
Growing Degree Days 22 (Base 50)    
Moisture  
Dew Point 60 °F    
Average Humidity 64    
Maximum Humidity 93    
Minimum Humidity 44    
Precipitation  
Precipitation 0.00 in 0.12 in 2.30 in (1995)
Month to date precipitation 2.95  
Year to date precipitation 18.41  
Snow  
Snow 0.00 in 0.00 in - ()
Month to date snowfall 0.0  
Since 1 July snowfall 0.0  
Snow Depth -    
Sea Level Pressure  
Sea Level Pressure 30.05 in    
Wind  
Wind Speed 2 mph (NNE)    
Max Wind Speed 10 mph    
Max Gust Speed 17 mph    
Visibility 10 miles    
Events      
T = Trace of Precipitation, MM = Missing Value Source: NWS Daily Summary

Daily Weather History Graph

Daily Weather History Graph

Search for Another Location

Airport or City:

Trip Planner

Search our weather history database for the weather conditions in past years. The results will help you decide how hot, cold, wet, or windy it might be!

Date:

Astronomy

Jul. 24, 2013 Rise Set
Actual Time 6:12 AM CDT 8:48 PM CDT
Civil Twilight 5:40 AM CDT 9:20 PM CDT
Nautical Twilight 5:01 AM CDT 10:00 PM CDT
Astronomical Twilight 4:16 AM CDT 10:44 PM CDT
Moon 9:53 PM CDT (7/24) 8:35 AM CDT (7/24)
Length of Visible Light 15h 39m
Length of Day
14h 36m
Waning Gibbous, 94% of the Moon is Illuminated
Jul 24
Waning Gibbous
Jul 29
Last Quarter
Aug 6
New
Aug 14
First Quarter
Aug 20
Full

Hourly Weather History & Observations

Time (CDT) Temp. Heat Index Dew Point Humidity Pressure Visibility Wind Dir Wind Speed Gust Speed Precip Events Conditions
12:15 AM 70.7 °F - 62.1 °F 74% 30.01 in 10.0 mi NE 3.5 mph - N/A   Clear
12:35 AM 70.9 °F - 60.8 °F 70% 30.01 in 10.0 mi NE 3.5 mph - N/A   Clear
12:55 AM 71.1 °F - 59.2 °F 66% 30.01 in 10.0 mi ENE 3.5 mph - N/A   Clear
1:15 AM 70.9 °F - 58.3 °F 64% 30.03 in 10.0 mi Calm Calm - N/A   Clear
1:35 AM 70.2 °F - 58.1 °F 65% 30.03 in 10.0 mi Calm Calm - N/A   Clear
1:55 AM 69.8 °F - 58.1 °F 66% 30.03 in 10.0 mi Calm Calm - N/A   Clear
2:15 AM 69.1 °F - 58.1 °F 68% 30.03 in 10.0 mi Calm Calm - N/A   Clear
2:35 AM 68.9 °F - 58.5 °F 69% 30.03 in 10.0 mi Calm Calm - N/A   Clear
2:55 AM 68.0 °F - 58.5 °F 71% 30.03 in 10.0 mi Calm Calm - N/A   Clear
3:15 AM 66.6 °F - 58.3 °F 75% 30.04 in 10.0 mi Calm Calm - N/A   Clear
3:35 AM 65.8 °F - 58.3 °F 77% 30.04 in 10.0 mi Calm Calm - N/A   Clear
3:55 AM 64.9 °F - 58.1 °F 78% 30.03 in 10.0 mi Calm Calm - N/A   Clear
4:15 AM 63.9 °F - 58.3 °F 82% 30.03 in 10.0 mi Calm Calm - N/A   Clear
4:35 AM 62.8 °F - 59.4 °F 89% 30.03 in 10.0 mi Calm Calm - N/A   Clear
4:55 AM 62.4 °F - 58.8 °F 88% 30.04 in 10.0 mi Calm Calm - N/A   Clear
5:15 AM 62.6 °F - 58.8 °F 87% 30.05 in 10.0 mi Calm Calm - N/A   Clear
5:35 AM 61.9 °F - 59.0 °F 90% 30.04 in 10.0 mi Calm Calm - N/A   Clear
5:55 AM 61.3 °F - 59.2 °F 93% 30.05 in 10.0 mi Calm Calm - N/A   Clear
6:15 AM 61.3 °F - 59.2 °F 93% 30.06 in 10.0 mi Calm Calm - N/A   Clear
6:35 AM 61.3 °F - 58.3 °F 90% 30.07 in 10.0 mi Calm Calm - N/A   Clear
6:55 AM 62.2 °F - 59.9 °F 92% 30.08 in 10.0 mi Calm Calm - N/A   Clear
7:15 AM 63.3 °F - 60.1 °F 89% 30.09 in 10.0 mi Calm Calm - N/A   Clear
7:35 AM 65.3 °F - 60.6 °F 85% 30.09 in 10.0 mi Calm Calm - N/A   Clear
7:55 AM 66.7 °F - 60.1 °F 79% 30.09 in 10.0 mi Calm Calm - N/A   Clear
8:15 AM 68.2 °F - 59.7 °F 74% 30.09 in 10.0 mi Calm Calm - N/A   Clear
8:35 AM 69.3 °F - 58.6 °F 69% 30.09 in 10.0 mi Calm Calm - N/A   Clear
8:55 AM 70.7 °F - 58.8 °F 66% 30.09 in 10.0 mi Calm Calm - N/A   Clear
9:15 AM 72.0 °F - 58.8 °F 63% 30.09 in 10.0 mi Calm Calm - N/A   Clear
9:35 AM 72.7 °F - 59.5 °F 63% 30.09 in 10.0 mi Calm Calm - N/A   Clear
9:55 AM 73.0 °F - 59.9 °F 63% 30.09 in 10.0 mi Calm Calm - N/A   Clear
10:15 AM 74.1 °F - 59.7 °F 61% 30.09 in 10.0 mi NW 3.5 mph - N/A   Clear
10:35 AM 75.2 °F - 60.6 °F 60% 30.08 in 10.0 mi NW 5.8 mph - N/A   Clear
10:55 AM 75.7 °F - 60.4 °F 59% 30.09 in 10.0 mi WNW 8.1 mph - N/A   Clear
11:15 AM 76.1 °F - 60.1 °F 57% 30.09 in 10.0 mi WNW 5.8 mph - N/A   Clear
11:35 AM 76.8 °F - 59.9 °F 56% 30.09 in 10.0 mi NW 6.9 mph - N/A   Clear
11:55 AM 77.7 °F - 59.9 °F 54% 30.09 in 10.0 mi North 5.8 mph - N/A   Clear
12:15 PM 78.3 °F - 59.4 °F 52% 30.09 in 10.0 mi NW 9.2 mph - N/A   Clear
12:35 PM 78.6 °F - 59.0 °F 51% 30.08 in 10.0 mi NW 10.4 mph - N/A   Clear
12:55 PM 79.5 °F - 60.1 °F 51% 30.09 in 10.0 mi NW 8.1 mph 17.3 mph N/A   Clear
1:15 PM 79.3 °F - 59.0 °F 50% 30.08 in 10.0 mi NW 9.2 mph - N/A   Clear
1:35 PM 79.9 °F - 58.8 °F 48% 30.07 in 10.0 mi NW 8.1 mph - N/A   Clear
1:55 PM 80.2 °F 81.0 °F 60.3 °F 50% 30.07 in 10.0 mi North 8.1 mph - N/A   Clear
2:15 PM 80.6 °F 81.2 °F 59.9 °F 49% 30.06 in 10.0 mi NNE 3.5 mph - N/A   Clear
2:35 PM 80.6 °F 81.1 °F 59.2 °F 48% 30.06 in 10.0 mi Calm Calm - N/A   Clear
2:55 PM 81.5 °F 82.0 °F 60.1 °F 48% 30.06 in 10.0 mi Calm Calm - N/A   Clear
3:15 PM 81.7 °F 82.0 °F 59.4 °F 47% 30.05 in 10.0 mi Calm Calm - N/A   Clear
3:35 PM 81.9 °F 82.3 °F 60.4 °F 48% 30.05 in 10.0 mi North 4.6 mph - N/A   Clear
3:55 PM 82.8 °F 83.0 °F 59.9 °F 46% 30.04 in 10.0 mi NE 4.6 mph - N/A   Clear
4:15 PM 82.4 °F 82.5 °F 58.8 °F 45% 30.03 in 10.0 mi North 4.6 mph - N/A   Clear
4:35 PM 82.6 °F 82.8 °F 59.9 °F 46% 30.03 in 10.0 mi NNW 3.5 mph - N/A   Clear
4:55 PM 83.8 °F 83.8 °F 59.7 °F 44% 30.03 in 10.0 mi NNW 5.8 mph - N/A   Clear
5:15 PM 82.6 °F 82.8 °F 60.1 °F 46% 30.02 in 10.0 mi Calm Calm - N/A   Clear
5:35 PM 82.0 °F 82.4 °F 60.3 °F 47% 30.02 in 10.0 mi Calm Calm - N/A   Clear
5:55 PM 81.9 °F 82.3 °F 60.3 °F 48% 30.02 in 10.0 mi Calm Calm - N/A   Clear
6:15 PM 81.5 °F 81.8 °F 59.7 °F 47% 30.02 in 10.0 mi Calm Calm - N/A   Clear
6:35 PM 81.3 °F 82.1 °F 61.0 °F 50% 30.02 in 10.0 mi Calm Calm - N/A   Clear
6:55 PM 82.4 °F 82.7 °F 60.3 °F 47% 30.02 in 10.0 mi Calm Calm - N/A   Clear
7:15 PM 80.6 °F 81.4 °F 60.3 °F 50% 30.03 in 10.0 mi SE 5.8 mph - N/A   Scattered Clouds
7:35 PM 79.3 °F - 60.1 °F 52% 30.03 in 10.0 mi ESE 3.5 mph - N/A   Scattered Clouds
7:55 PM 79.0 °F - 61.0 °F 54% 30.03 in 10.0 mi SE 5.8 mph - N/A   Clear
8:15 PM 77.9 °F - 61.7 °F 57% 30.02 in 10.0 mi SE 5.8 mph - N/A   Clear
8:35 PM 77.2 °F - 61.7 °F 59% 30.02 in 10.0 mi SE 4.6 mph - N/A   Clear
8:55 PM 76.3 °F - 61.9 °F 61% 30.01 in 10.0 mi SE 4.6 mph - N/A   Clear
9:15 PM 75.4 °F - 61.7 °F 62% 30.01 in 10.0 mi SE 4.6 mph - N/A   Clear
9:35 PM 74.8 °F - 61.9 °F 64% 30.01 in 10.0 mi SE 3.5 mph - N/A   Clear
9:55 PM 74.3 °F - 62.1 °F 65% 30.01 in 10.0 mi SE 4.6 mph - N/A   Clear
10:15 PM 73.6 °F - 62.1 °F 67% 30.03 in 10.0 mi Calm Calm - N/A   Clear
10:35 PM 73.2 °F - 62.4 °F 69% 30.04 in 10.0 mi Calm Calm - N/A   Clear
10:55 PM 72.5 °F - 62.6 °F 71% 30.05 in 10.0 mi SE 3.5 mph - N/A   Clear
11:15 PM 72.3 °F - 63.0 °F 72% 30.05 in 10.0 mi Calm Calm - N/A   Clear
11:35 PM 71.4 °F - 63.5 °F 76% 30.05 in 10.0 mi Calm Calm - N/A   Clear
11:55 PM 70.2 °F - 63.7 °F 80% 30.04 in 10.0 mi Calm Calm - N/A   Clear